GW6324 Weather Reports


time (UTC)temp
C
wind
direction
speed
KPH
gust
KPH
rain 1hr
cm
rain 24hr
cm
rain mn
cm
humidity
%
barometer
mb
20260507151536 11 90 4.8 16.1 0.00 0.00 0.00 47 1014.7
20260507150036 11 274 6.4 17.7 0.00 0.00 0.00 47 1014.8
20260507144535 10 227 3.2 12.9 0.00 0.00 0.00 48 1014.9
20260507143036 11 146 3.2 14.5 0.00 0.00 0.00 48 1015.0
20260507141533 10 77 4.8 12.9 0.00 0.00 0.00 51 1015.0
20260507140043 10 241 6.4 14.5 0.00 0.00 0.00 52 1015.0
20260507134538 9 300 3.2 8.0 0.00 0.00 0.00 52 1015.0
20260507133050 9 246 3.2 12.9 0.00 0.00 0.00 59 1015.0
20260507131545 8 156 1.6 9.7 0.00 0.00 0.00 63 1014.9
20260507130045 8 318 4.8 12.9 0.00 0.00 0.00 65 1014.7
20260507124533 8 268 1.6 4.8 0.00 0.00 0.00 66 1014.7
20260507123036 7 58 0.0 4.8 0.00 0.00 0.00 68 1014.8
20260507121535 7 95 0.0 4.8 0.00 0.00 0.00 71 1014.9
20260507120046 7 85 0.0 3.2 0.00 0.00 0.00 69 1014.9
20260507114602 7 0 0.0 3.2 0.00 0.00 0.00 72 1014.9
20260507113035 6 100 0.0 3.2 0.00 0.00 0.00 74 1014.9
20260507111535 5 261 0.0 3.2 0.00 0.00 0.00 76 1014.7
20260507110030 5 0 0.0 3.2 0.00 0.00 0.00 76 1014.4
20260507104535 6 0 0.0 3.2 0.00 0.00 0.00 76 1014.1
20260507103035 6 246 0.0 3.2 0.00 0.00 0.00 76 1014.1
20260507101533 6 251 0.0 3.2 0.00 0.00 0.00 77 1014.2
20260507100035 6 248 0.0 3.2 0.00 0.00 0.00 77 1014.2
20260507094533 6 269 0.0 3.2 0.00 0.00 0.00 78 1014.2
20260507093035 6 255 0.0 3.2 0.00 0.00 0.00 77 1014.2
20260507091542 6 0 0.0 3.2 0.00 0.00 0.00 77 1014.1
20260507090038 6 255 0.0 4.8 0.00 0.00 0.00 77 1014.1
20260507084536 6 0 0.0 3.2 0.00 0.03 0.00 78 1013.9
20260507083032 7 0 0.0 3.2 0.00 0.03 0.00 79 1013.7
20260507081530 7 0 0.0 3.2 0.00 0.03 0.00 79 1013.7
20260507080036 7 0 0.0 3.2 0.00 0.03 0.00 79 1013.7
20260507074534 7 192 0.0 3.2 0.00 0.20 0.00 78 1013.7
20260507073030 7 0 0.0 3.2 0.00 0.20 0.00 78 1013.8
20260507071530 7 231 0.0 3.2 0.00 0.20 0.00 78 1013.8
20260507070035 7 224 0.0 3.2 0.00 0.20 0.00 77 1013.9
20260507064535 7 0 0.0 3.2 0.00 0.89 0.00 77 1014.0
20260507063035 7 0 0.0 3.2 0.00 0.89 0.00 78 1014.0
20260507061535 8 0 0.0 3.2 0.00 0.89 0.00 77 1014.2
20260507060032 8 0 0.0 3.2 0.00 0.89 0.00 77 1014.0
20260507054537 7 0 0.0 3.2 0.00 1.55 0.00 78 1014.0
20260507053036 7 236 1.6 1.6 0.00 1.55 0.00 80 1014.1
20260507051537 7 0 0.0 3.2 0.00 1.55 0.00 79 1014.0
20260507050034 7 0 0.0 0.0 0.00 1.55 0.00 79 1014.0
20260507044534 7 0 0.0 0.0 0.00 1.78 0.00 79 1014.0
20260507043032 8 0 0.0 0.0 0.00 1.78 0.00 78 1014.1
20260507041533 8 0 0.0 3.2 0.00 1.78 0.00 76 1014.1
20260507040041 8 0 0.0 3.2 0.00 1.78 0.00 75 1014.0
20260507034537 8 0 0.0 3.2 0.00 1.85 1.78 76 1013.9
20260507033034 10 225 0.0 3.2 0.00 1.85 1.78 71 1014.0
20260507031533 10 0 0.0 3.2 0.00 1.85 1.78 70 1014.1
20260507030032 10 0 0.0 1.6 0.00 1.85 1.78 68 1014.0
20260507024536 10 0 0.0 3.2 0.00 2.13 1.78 66 1014.1
20260507023042 11 0 0.0 3.2 0.00 2.13 1.78 64 1014.0
20260507021534 11 0 0.0 3.2 0.00 2.13 1.78 65 1013.9
20260507020048 11 0 0.0 3.2 0.00 2.13 1.78 64 1013.7
20260507014532 12 0 0.0 1.6 0.00 2.46 1.78 62 1013.6
20260507013046 12 0 0.0 3.2 0.00 2.46 1.78 60 1013.6
20260507011536 12 0 0.0 3.2 0.00 2.46 1.78 59 1013.3
20260507010037 12 100 0.0 3.2 0.00 2.46 1.78 58 1013.1
20260507004542 13 193 0.0 3.2 0.00 2.49 1.78 57 1013.2
20260507003042 13 211 0.0 3.2 0.00 2.49 1.78 55 1013.1
20260507001543 13 360 0.0 3.2 0.00 2.49 1.78 55 1013.2
20260507000036 14 263 1.6 8.0 0.00 2.49 1.78 56 1013.0
20260506234538 14 107 1.6 8.0 0.00 2.51 1.78 55 1012.8
20260506233035 15 306 1.6 9.7 0.00 2.51 1.78 52 1012.6
20260506231535 15 271 1.6 8.0 0.00 2.51 1.78 52 1012.6
20260506230040 15 77 3.2 12.9 0.00 2.51 1.78 52 1012.1
20260506224533 15 75 1.6 6.4 0.00 2.54 1.78 53 1012.3
20260506223042 15 64 1.6 8.0 0.00 2.54 1.78 53 1012.3
20260506221534 15 112 1.6 6.4 0.00 2.54 1.78 49 1012.6
20260506220034 15 270 1.6 12.9 0.00 2.54 1.78 52 1012.4
20260506214539 15 108 3.2 8.0 0.00 2.59 1.78 49 1012.7
20260506213035 16 281 1.6 9.7 0.00 2.59 1.78 47 1012.7
20260506211536 16 72 4.8 12.9 0.00 2.59 1.78 50 1012.4
20260506210036 16 112 1.6 14.5 0.00 2.59 1.78 52 1012.4
20260506204534 15 77 4.8 14.5 0.00 2.82 1.78 47 1012.3
20260506203034 15 85 6.4 17.7 0.00 2.82 1.78 46 1012.2
20260506201530 16 262 3.2 12.9 0.00 2.82 1.78 51 1012.3
20260506200035 15 199 1.6 12.9 0.00 2.82 1.78 49 1012.4
20260506194536 15 244 3.2 12.9 0.00 3.30 1.78 50 1012.3
20260506193037 16 77 1.6 14.5 0.00 3.30 1.78 51 1012.2
20260506191535 16 85 4.8 16.1 0.00 3.30 1.78 49 1012.0
20260506190032 16 117 3.2 14.5 0.00 3.30 1.78 55 1011.8
20260506184548 16 74 4.8 16.1 0.00 3.30 1.78 53 1011.9
20260506183050 15 244 4.8 12.9 0.00 3.30 1.78 63 1011.9
20260506181555 15 100 11.3 19.3 0.00 3.30 1.78 52 1012.0
20260506180036 15 285 3.2 17.7 0.00 3.30 1.78 58 1012.0
20260506174534 15 95 6.4 17.7 0.00 3.30 1.78 56 1012.3
20260506173048 13 90 3.2 19.3 0.00 3.30 1.78 59 1012.4
20260506171538 13 90 4.8 17.7 0.00 3.30 1.78 64 1012.3
20260506170039 13 69 1.6 9.7 0.00 3.30 1.78 67 1012.6
20260506164537 13 98 3.2 19.3 0.00 3.30 1.78 63 1012.7
20260506163038 12 90 4.8 12.9 0.00 3.30 1.78 63 1012.9
20260506161535 12 180 3.2 14.5 0.00 3.30 1.78 66 1012.6
20260506160033 12 85 4.8 17.7 0.00 3.30 1.78 63 1012.5
20260506154537 12 54 6.4 16.1 0.00 3.30 1.78 67 1012.5
20260506153050 11 77 6.4 19.3 0.00 3.30 1.78 69 1012.1